When you browse on this site, cookies collect data to enhance your experience and personalize the content and advertising you see.
Visit our Privacy Policy to learn more. By continuing to use the site, you agree to this use of cookies and data.
  • In Hungary
  • List of Countries
  • For 7 days
  • Water Temperature
  • Satellite Maps
  • Weather Map
  • News
  • Weather Widgets
  • user-avatar
    Login

    Hourly Weather Tepetitla

    Today, 23 February, Saturday

    Time Temperature Precipitation Wind Pressure Humidity
    00:00 +14°C° 0 mm 0 mps 578 mmHg 45%
    01:00 +13°C° 0 mm 0 mps 577 mmHg 47%
    02:00 +13°C° 0 mm 0 mps 577 mmHg 49%
    03:00 +12°C° 0 mm 0 mps 577 mmHg 50%
    04:00 +12°C° 0 mm 0 mps 577 mmHg 52%
    05:00 +12°C° 0 mm 0 mps 577 mmHg 54%
    06:00 +14°C° 0 mm 1 mps 578 mmHg 50%
    07:00 +16°C° 0 mm 1 mps 579 mmHg 46%
    08:00 +19°C° 0 mm 1 mps 580 mmHg 43%
    09:00 +21°C° 0 mm 1 mps 581 mmHg 38%
    10:00 +23°C° 0 mm 1 mps 581 mmHg 33%
    11:00 +25°C° 0 mm 1 mps 582 mmHg 28%
    12:00 +25°C° 0 mm 1 mps 582 mmHg 27%
    13:00 +26°C° 0 mm 2 mps 581 mmHg 26%
    14:00 +26°C° 0 mm 2 mps 581 mmHg 25%
    15:00 +25°C° 0 mm 2 mps 580 mmHg 29%
    16:00 +24°C° 0 mm 2 mps 580 mmHg 33%
    17:00 +23°C° 0 mm 2 mps 579 mmHg 36%
    18:00 +21°C° 0.1 mm 2 mps 580 mmHg 40%
    19:00 +20°C° 0.1 mm 2 mps 580 mmHg 43%
    20:00 +19°C° 0.1 mm 1 mps 580 mmHg 46%
    21:00 +19°C° 0 mm 1 mps 580 mmHg 49%
    22:00 +17°C° 0 mm 2 mps 580 mmHg 52%
    23:00 +16°C° 0 mm 2 mps 580 mmHg 54%

    Tomorrow, 24 February, Sunday

    Time Temperature Precipitation Wind Pressure Humidity
    00:00 +15°C° 0 mm 2 mps 580 mmHg 56%
    01:00 +14°C° 0 mm 2 mps 579 mmHg 57%
    02:00 +14°C° 0 mm 2 mps 579 mmHg 58%
    03:00 +13°C° 0 mm 2 mps 578 mmHg 61%
    04:00 +13°C° 0 mm 2 mps 578 mmHg 64%
    05:00 +12°C° 0 mm 2 mps 578 mmHg 67%
    06:00 +14°C° 0 mm 2 mps 579 mmHg 65%
    07:00 +15°C° 0 mm 2 mps 580 mmHg 62%
    08:00 +16°C° 0 mm 3 mps 581 mmHg 60%
    09:00 +18°C° 0 mm 3 mps 582 mmHg 53%
    10:00 +19°C° 0 mm 3 mps 583 mmHg 47%
    11:00 +21°C° 0 mm 3 mps 583 mmHg 40%
    12:00 +21°C° 0.1 mm 3 mps 583 mmHg 42%
    13:00 +21°C° 0.1 mm 3 mps 582 mmHg 44%
    14:00 +20°C° 0.1 mm 3 mps 581 mmHg 45%
    15:00 +19°C° 0.2 mm 3 mps 580 mmHg 51%
    16:00 +18°C° 0.2 mm 3 mps 580 mmHg 56%
    17:00 +17°C° 0.2 mm 3 mps 579 mmHg 61%
    18:00 +16°C° 0.1 mm 3 mps 579 mmHg 65%
    19:00 +14°C° 0.1 mm 3 mps 579 mmHg 69%
    20:00 +14°C° 0.1 mm 2 mps 580 mmHg 73%
    21:00 +14°C° 0.1 mm 2 mps 580 mmHg 75%
    22:00 +13°C° 0.1 mm 2 mps 580 mmHg 76%
    23:00 +13°C° 0.1 mm 1 mps 580 mmHg 78%

    Day after tomorrow, 25 February, Monday

    Time Temperature Precipitation Wind Pressure Humidity
    00:00 +13°C° 0 mm 1 mps 579 mmHg 79%
    01:00 +12°C° 0 mm 1 mps 578 mmHg 81%
    02:00 +12°C° 0 mm 1 mps 578 mmHg 82%
    03:00 +12°C° 0 mm 1 mps 578 mmHg 83%
    04:00 +12°C° 0 mm 1 mps 578 mmHg 84%
    05:00 +11°C° 0 mm 1 mps 578 mmHg 84%
    06:00 +13°C° 0 mm 1 mps 579 mmHg 78%
    07:00 +14°C° 0 mm 1 mps 580 mmHg 71%
    08:00 +16°C° 0 mm 2 mps 582 mmHg 64%
    09:00 +19°C° 0 mm 1 mps 582 mmHg 56%
    10:00 +21°C° 0 mm 1 mps 583 mmHg 48%
    11:00 +23°C° 0 mm 1 mps 583 mmHg 39%
    12:00 +24°C° 0.2 mm 1 mps 583 mmHg 38%
    13:00 +24°C° 0.2 mm 1 mps 582 mmHg 36%
    14:00 +25°C° 0.2 mm 2 mps 582 mmHg 34%
    15:00 +23°C° 0.5 mm 2 mps 581 mmHg 38%
    16:00 +21°C° 0.5 mm 2 mps 580 mmHg 43%
    17:00 +20°C° 0.5 mm 2 mps 580 mmHg 47%
    18:00 +19°C° 0.6 mm 2 mps 580 mmHg 52%
    19:00 +18°C° 0.6 mm 2 mps 580 mmHg 57%
    20:00 +17°C° 0.6 mm 2 mps 580 mmHg 63%
    21:00 +16°C° 0.4 mm 2 mps 580 mmHg 66%
    22:00 +16°C° 0.4 mm 2 mps 580 mmHg 68%
    23:00 +15°C° 0.4 mm 1 mps 580 mmHg 71%

    26 February, Tuesday

    Time Temperature Precipitation Wind Pressure Humidity
    00:00 +15°C° 0.2 mm 1 mps 580 mmHg 72%
    01:00 +14°C° 0.2 mm 1 mps 579 mmHg 74%
    02:00 +14°C° 0.2 mm 1 mps 578 mmHg 75%
    03:00 +13°C° 0 mm 1 mps 578 mmHg 74%
    04:00 +13°C° 0 mm 1 mps 578 mmHg 73%
    05:00 +12°C° 0 mm 0 mps 578 mmHg 73%
    06:00 +14°C° 0 mm 1 mps 579 mmHg 66%
    07:00 +16°C° 0 mm 1 mps 580 mmHg 60%
    08:00 +19°C° 0 mm 1 mps 582 mmHg 54%
    09:00 +20°C° 0 mm 1 mps 582 mmHg 47%
    10:00 +22°C° 0 mm 1 mps 582 mmHg 40%
    11:00 +24°C° 0 mm 1 mps 583 mmHg 34%
    12:00 +24°C° 0 mm 1 mps 582 mmHg 32%
    13:00 +25°C° 0 mm 1 mps 582 mmHg 30%
    14:00 +26°C° 0 mm 1 mps 581 mmHg 28%
    15:00 +25°C° 0 mm 1 mps 581 mmHg 32%
    16:00 +24°C° 0 mm 1 mps 581 mmHg 35%
    17:00 +23°C° 0 mm 1 mps 580 mmHg 38%
    18:00 +21°C° 0.1 mm 1 mps 580 mmHg 43%
    19:00 +20°C° 0.1 mm 1 mps 580 mmHg 49%
    20:00 +17°C° 0.1 mm 0 mps 580 mmHg 54%
    21:00 +18°C° 0.1 mm 1 mps 580 mmHg 56%
    22:00 +18°C° 0.1 mm 1 mps 580 mmHg 58%
    23:00 +16°C° 0.1 mm 1 mps 579 mmHg 60%

    27 February, Wednesday

    Time Temperature Precipitation Wind Pressure Humidity
    00:00 +16°C° 0 mm 1 mps 579 mmHg 61%
    01:00 +15°C° 0 mm 1 mps 578 mmHg 62%
    02:00 +15°C° 0 mm 1 mps 578 mmHg 63%
    03:00 +14°C° 0 mm 1 mps 578 mmHg 64%
    04:00 +14°C° 0 mm 1 mps 578 mmHg 64%
    05:00 +14°C° 0 mm 1 mps 578 mmHg 65%
    06:00 +15°C° 0 mm 1 mps 579 mmHg 57%
    07:00 +18°C° 0 mm 1 mps 580 mmHg 50%
    08:00 +20°C° 0 mm 1 mps 581 mmHg 43%
    09:00 +21°C° 0 mm 1 mps 582 mmHg 35%
    10:00 +23°C° 0 mm 2 mps 582 mmHg 27%
    11:00 +25°C° 0 mm 2 mps 583 mmHg 20%
    12:00 +26°C° 0 mm 2 mps 583 mmHg 19%
    13:00 +26°C° 0 mm 2 mps 582 mmHg 18%
    14:00 +27°C° 0 mm 2 mps 581 mmHg 17%
    15:00 +26°C° 0 mm 2 mps 581 mmHg 20%
    16:00 +25°C° 0 mm 2 mps 581 mmHg 22%
    17:00 +24°C° 0 mm 2 mps 580 mmHg 25%
    18:00 +22°C° 0 mm 1 mps 580 mmHg 33%
    19:00 +21°C° 0 mm 1 mps 580 mmHg 40%
    20:00 +19°C° 0 mm 1 mps 580 mmHg 48%
    21:00 +18°C° 0 mm 1 mps 579 mmHg 50%
    22:00 +18°C° 0 mm 1 mps 579 mmHg 53%
    23:00 +15°C° 0 mm 0 mps 579 mmHg 56%

    28 February, Thursday

    Time Temperature Precipitation Wind Pressure Humidity
    00:00 +16°C° 0 mm 1 mps 578 mmHg 57%
    01:00 +15°C° 0 mm 1 mps 578 mmHg 58%
    02:00 +15°C° 0 mm 1 mps 577 mmHg 60%
    03:00 +14°C° 0 mm 1 mps 577 mmHg 61%
    04:00 +14°C° 0 mm 1 mps 577 mmHg 62%
    05:00 +13°C° 0 mm 1 mps 577 mmHg 63%
    06:00 +15°C° 0 mm 1 mps 578 mmHg 57%
    07:00 +16°C° 0 mm 0 mps 579 mmHg 50%
    08:00 +18°C° 0 mm 0 mps 580 mmHg 44%
    09:00 +21°C° 0 mm 1 mps 581 mmHg 37%
    10:00 +23°C° 0 mm 1 mps 581 mmHg 30%
    11:00 +25°C° 0 mm 1 mps 582 mmHg 22%
    12:00 +26°C° 0 mm 2 mps 581 mmHg 22%
    13:00 +26°C° 0 mm 2 mps 581 mmHg 21%
    14:00 +27°C° 0 mm 3 mps 580 mmHg 21%
    15:00 +26°C° 0 mm 3 mps 579 mmHg 24%
    16:00 +25°C° 0 mm 3 mps 579 mmHg 28%
    17:00 +23°C° 0 mm 4 mps 579 mmHg 31%
    18:00 +21°C° 0 mm 3 mps 578 mmHg 37%
    19:00 +20°C° 0 mm 2 mps 578 mmHg 43%
    20:00 +18°C° 0 mm 2 mps 578 mmHg 49%
    21:00 +19°C° 0 mm 1 mps 578 mmHg 51%
    22:00 +18°C° 0 mm 1 mps 578 mmHg 54%
    23:00 +18°C° 0 mm 1 mps 577 mmHg 56%
    Show more